Погода Баку

Погода Баку : погода сейчас, прогноз погоды и архив. Всё, что Вы хотите узнать о погоде Баку!

Поиск расширенной информации на нашем сайте:

Другие новости

Новости СМИ2

Главная страница сайта

Новости сайта

03.07.2017

Напоминаем, что на нашем специализированном сайте Метеоцентр.Азия вы можете получить высокодетализированные автоматические прогнозы погоды по пунктам России, СНГ и мира в авиационном формате (включающие направление и скорость ветра, видимость, явления погоды, количество и форму облачности, нижнюю и верхнюю границу облачности).


Погода Баку - сегодня

Время (UTC), дата Ветер
(°,м/с) 
Видим.   Явления Облачность Т
(°С)
Тd
(°С)
f(%) Тe
(°С)
Pmin
(гПа)
dP
(гПа)
Po
(мм)
O2
(г/м3)
Тmin Tmax R s Состояние
почвы
09 17.09.17 130 (ЮВ) 10 км    ясно 
+32.2 +8.4 23 +32  1018.8  -0.7  764  273           
12 17.09.17 130 (ЮВ) 10 км    ясно 
+32 +10.5 27 +34  1017.9  -0.9  764  273           
15 17.09.17 тихо ()   10 км    ясно 
+27.2 +15.4 48 +36  1018.1  0.2  764  276           
18 17.09.17 тихо ()   10 км    ясно 
+23.8 +20 79 +42  1018.6  0.5  764  278    +32.2       
21 17.09.17 тихо ()   10 км    ясно 
+20.2 +18.3 89 +35  1018  -0.6  764  282           
00 18.09.17 тихо ()   10 км    ясно 
+17.7 +15.1 85 +26  1017.6  -0.4  763  285           
03 18.09.17 тихо ()   10 км    ясно 
+18.1 +15.4 84 +27  1018  0.4  764  285           
09 18.09.17 160 (Ю) 10 км    ясно 
+32.2 +7 21 +32  1017.3  -1.2  763  273           
12 18.09.17 150 (ЮВ) 10 км    ясно 
+32.7 +5.3 18 +33  1016  -1.3  762  273           
15 18.09.17 150 (ЮВ) 10 км    ясно 
+26.6 +16.8 55 +38  1015.8  -0.2  762  275           
18 18.09.17 130 (ЮВ) 10 км    ясно 
+23.1 +19.8 82 +41  1016.1  0.3  762  278    +33.8       
21 18.09.17 150 (ЮВ) 10 км    ясно 
+22.8 +20 84 +41  1015.7  -0.4  762  278           
00 19.09.17 090 (В) 10 км    ясно 
+22.1 +20 88 +40  1015.4  -0.3  762  278           
03 19.09.17 160 (Ю) 10 км    ясно 
+22.2 +20.5 90 +42  1015.8  0.4  762  278           
06 19.09.17 150 (ЮВ) 10 км    ясно 
+27.7 +19.4 61 +45  1016.4  0.6  762  274  +21         
09 19.09.17 150 (ЮВ) 10 км    ясно 
+30 +17.3 47 +43  1015.9  -0.5  762  272           
12 19.09.17 160 (Ю) 10 км    ясно 
+29.7 +16.3 44 +40  1014.9  -1  761  272           
15 19.09.17 170 (Ю) 10 км    ясно 
+26.1 +19.5 67 +43  1015.2  0.3  761  275           
18 19.09.17 170 (Ю) 10 км    ясно 
+23 +19.6 81 +40  1015.8  0.6  762  278    +30.4       
21 19.09.17 тихо ()   10 км    ясно 
+22.3 +19.8 86 +40  1015.6  -0.2  762  278           
00 20.09.17 тихо ()   10 км    ясно 
+20.3 +18.5 89 +35  1015.1  -0.5  761  280           
03 20.09.17 160 (Ю) 10 км    ясно 
+21.2 +20 93 +39  1015.5  0.4  762  279           
06 20.09.17 140 (ЮВ) 10 км    ясно 
+30.1 +11.5 32 +33  1019.5  0.4  765  275  +19.3         
09 20.09.17 160 (Ю) 10 км    ясно 
+31.3 +12.2 31 +35  1015  -0.9  761  272           
12 20.09.17 170 (Ю) 10 км    ясно 
+31.1 +9.5 26 +31  1014.1  -0.9  761  273           
Время (UTC), дата Ветер
(°,м/с) 
Видим.   Явления Облачность Т
(°С)
Тd
(°С)
f(%) Тe
(°С)
Pmin
(гПа)
dP
(гПа)
Po
(мм)
O2
(г/м3)
Тmin Tmax R s Состояние
почвы

Для получения пояснительной информации подведите курсор к названию столбца.

ПОГОДА Баку - архив

Всё, что Вы хотите узнать о погоде Баку - удобно и подробно!

Выберите нужную дату (начиная с 1 января 2015* года) и нажмите кнопку "Найти".
Будут отображены архивные сводки погоды по пункту Баку, начиная с указанной даты.


Отображать данные в формате CSV (для использования в таблицах Excel)


Внимание! Наш архив погоды предназначен исключительно для личного некоммерческого использования в познавательных целях. Если Вам необходимы официальные справки о состоянии погоды (для производственных, юридических, коммерческих и т.п. целей), обращайтесь в органы Росгидромета.

*Примечание: данная дата относится к архиву по метеостанциям СССР (Россия, СНГ, Балтия).
Архив по метеостанциям Зарубежной Европы и Азии (кроме Китая) хранится 10 дней, по другим регионам земного шара (Китай, Африка, Америка, Австралия, Океания) - 1 день.

Баку - район местоположения метеостанции


Название, широта, долгота, высота метеостанции:
Баку (Гейдар Алиев) 40.4°ш. 50.1°д. -1 м над ур. моря [Азербайджан]

Дополнительная информация

В oтличие oт бoльшинства пoгoдных сайтoв мы публикуем пoдрoбную метеoинфoрмацию в детальнoм прoфессиoнальнoм фoрмате.

Характеристики температуры и влажнoсти вoздуха измеряются на высoте 2 м в тени вдали oт зданий и деревьев.
Скoрoсть ветра измеряется на высoте 10 м (на урoвне рoста челoвека скoрoсть ветра ниже в 1.5-2 раза). Если метеoстанция нахoдится в гoрoде или в лесу, тo скoрoсть ветра занижена на 2-4 м/с пo сравнению с oткрытым местoм. Скoрoсть ветра над акватoриями крупных рек и oзёр, а также на вершинах хoлмoв на 2-5 м/с выше, чем в oбычных услoвиях.
Атмoсфернoе давление в разных тoчках местнoсти мoжет значительнo oтличаться oт давления на метеoстанции, в зависимoсти oт услoвий рельефа (при пoдъёме на 10 м давление пoнижается примернo на 1 мм рт.ст.).